map of UZC home
UZC - Airport
Location
City:  Uzice, Serbia
Name:Uzice-Ponikve
ICAO:LYUZ
IATA:UZC

Details
Type:Airport (Aerodrome, Airfield)
Latitude:4353'56"N (43.898889)
Longitude:1941'51"E (19.697500)
Elevation:2966 ft (904 m)
Variation:4.73E (WMM2015v2 magnetic declination)
0.13 annual change
Runways:1
Longest:10499 × 148 ft (3200 × 45 m), paved

Time
Time Zone:UTC+1 (DST+2)
Local Time:

Weather
METAR:LYUZ 041400Z 32009KT 0300 FZFG VV001 M02/M03 Q1024
TAF:LYUZ 041100Z 0412/0512 31008KT 0200 FZFG VV002 TXM01/0413Z TNM04/0506Z
TEMPO 0412/0420 SN

Related Locations
Nearby:
Farthest:CHT: 11635 mi / 18724 km
Waitangi [Tuuta], CIT, NZ

Find:

   beyond  
but within

Other Information
Maps:
NOTAMs:
Links:
Sources:

  
  • flag of Serbia
  

Sectional Chart

Flight Planning
at skyvector.com

Satellite Image

Google Maps Satellite view

 

Copyright © 2004-2019 Karl L. Swartz. All rights reserved.
The Great Circle Mapper name and logo are trademarks of the Great Circle Mapper.
All other trademarks mentioned herein belong to their respective owners.
Please see credits for attibutions and further copyright information.

  Follow gcmap on Facebook Follow gcmap on Twitter GCmap on LinkedIn

hCard Microformat

Geo Microformat